DELTA 1 DEB, 5975

Orbit data source: Space-Track

DELTA 1 DEB, 5975 is space debris in HEO originally from a launch on Fri, 20 Mar 1970 UTC launched from the Air Force Eastern Test Range (AFETR). Debris objects in space refer to the collection of defunct objects orbiting the Earth. Examples of debris include non-operational satellites, rocket bodies, and fragments generated from explosions, collisions, or faulty payload assembly.

Loading next visibility...
Identifier
5975, 1970-021C
Orbit
HEO
Last TLE update
23 hours ago
Origin
Manufacturer
Unknown
Mission
Spacecraft
Bus & Motor
Unknown
Mass
Unknown
Launch date (UTC)
1970-03-20 (55 years ago)
Launch vehicle
Unknown
Launch site
Air Force Eastern Test Range (AFETR)
Object type
Payload
Rocket body
Debris
Shape & HBR
Unknown
Radar Cross Section
Large (>1 m²)

Expand to show TLE details & history

TLE from 23 hours ago
0 DELTA 1 DEB
1 05975U 70021C   25183.62353241  .00005963  00000-0  22972-2 0  9998
2 05975  25.6286  74.4108 6532187  32.0432 354.6931  3.25002130361509
Epoch: 2025-07-02T14:57Z
TLE epoch observation values (Epoch: 2025-07-02T14:57:53.2Z)
Latitude
-0.00069°
Longitude
-70.93933°
Altitude
710.356 km
Speed
9.579 km/s
True Right ascension
04h 57m 44s
True Declination
0° 00' 02"
Sunlit
Object was in daylight at epoch
Visualization orbit readout
Latitude
25.56998°
Longitude
25.91093°
Altitude
2,169.478 km
Speed
8.52 km/s
Apparent Right ascension
12h 07m 40s
Apparent Declination
-1° 51' 34"
Sunlit
Object is in daylight
Visualization observer readout
Local Sidereal Time
01:15:13
Azimuth
26.254° NE
Elevation
-48.967°
Doppler factor
1
Orbital elements
Apogee altitude
25,456.053 km
Perigee altitude
299.444 km
Semi-major axis
19,255.885 km
Eccentricity
0.65322
Inclination
25.6286°
RAAN
74.4108°
Arg. of periapsis
32.0432°
True anomaly
Unknown
Mean anomaly
354.6931°
Eccentric anomaly
Unknown
Mean motion
0.81227 °/min
Orbital period
443.2 mins
BSTAR
0.0022972
Loading maneuver chart data...
Loading SW <> Apogee altitude chart data...
Loading historical data...
Loading historical data...
Loading historical data...
Loading historical data...
Loading historical data...
Loading historical data...
Loading historical data...
Other satellites on launch #21 in the year 1970 (1970-03-20 UTC)

DELTA 1 DEB Visibility forecast

Observer location: undefined°, undefined°

Span
Click to sort rows by Start time (UTC) header in descending order
Start Az.
Max El. time (UTC)
Max El. Az.
Max El.
End time (UTC)
End Az.
328 mins2025-07-04 04:25:23.947Z256.366° W2025-07-04 05:03:23.947Z205.106° SW32.583°2025-07-04 09:53:23.947Z184.084° SSW
|